Temp
8 8 8 8 8 8 8 8 9 9 9 9 9 9 8 8 8 7 7 8 8 9 10 10 10 10 11 13 16 23 22 23 22 22 22 21 22 22 21 22 22 22 23 24 24 25 21
7 8 7 8 8 8 8 7 8 8 9 9 9 9 9 9 8 8 7 7 8 8 9 10 10 9 10 12 20 21 20 22 21 21 21 21 21 22 21 22 22 23 22 23 23 24 24
7 7 7 7 7 8 8 8 8 8 8 8 8 8 9 9 9 9 8 8 8 8 9 9 10 9 11 12 21 20 19 20 21 21 20 22 23 22 22 21 23 23 22 22 23 24 24
7 7 7 7 7 7 7 7 8 8 8 8 8 8 8 9 9 9 9 8 9 9 10 10 9 9 11 17 19 18 20 20 21 21 22 23 23 21 21 22 21 22 21 21 22 24 23
7 7 7 7 7 7 7 7 7 7 8 8 8 8 8 8 8 8 9 9 10 12 11 11 9 9 11 17 17 21 20 19 22 22 22 24 22 21 22 21 18 19 19 20 22 22 23
7 7 7 7 7 7 7 7 7 7 7 8 8 8 8 8 8 8 9 9 14 12 11 10 11 11 13 18 21 22 22 21 21 22 21 21 20 20 18 17 18 18 20 21 21 22 22
6 6 6 6 7 7 7 7 7 7 7 7 7 7 7 8 8 8 8 9 12 12 11 13 14 14 17 20 21 22 22 21 21 21 19 21 19 19 18 18 20 21 20 20 21 22 22
6 6 6 6 6 6 7 7 7 7 7 7 7 7 7 7 8 8 8 8 10 9 9 13 14 15 16 18 18 19 22 20 19 19 19 20 19 21 20 20 20 21 21 21 22 25 22
6 6 6 6 6 6 6 7 7 7 7 7 7 7 7 7 7 8 8 8 11 10 9 14 16 16 17 17 16 18 20 20 20 19 19 19 21 22 21 21 21 21 21 21 22 23 23
5 5 5 5 6 6 6 7 7 7 7 7 7 7 7 7 7 8 8 10 10 10 10 14 16 17 18 19 17 20 21 21 20 20 19 19 22 21 21 21 21 20 23 23 23 22 20
5 5 5 5 6 6 6 7 7 7 7 7 7 7 7 7 8 7 9 10 10 10 11 18 18 20 19 18 19 19 21 19 19 21 20 19 20 20 21 22 22 22 23 23 24 22 21
5 5 5 5 6 6 6 7 7 7 7 7 7 7 7 6 6 7 8 9 10 11 11 16 20 18 18 19 21 21 19 21 21 20 21 21 22 21 22 23 22 23 24 23 21 20 18
4 5 5 5 6 6 6 6 7 7 7 7 7 7 6 7 6 8 8 9 11 11 17 19 20 20 19 18 19 21 19 18 18 18 19 21 21 22 22 22 22 22 21 18 18 18 17
4 4 5 5 6 6 6 6 7 7 7 7 7 7 6 7 7 7 7 9 10 14 16 18 19 19 19 19 19 20 19 17 19 19 19 19 18 21 22 22 22 21 21 17 19 16 18
4 4 5 5 5 6 6 6 6 7 7 7 7 6 6 7 7 7 7 9 11 14 17 17 18 17 18 20 20 19 18 18 19 19 18 18 19 22 23 23 23 22 20 22 19 19 16
4 4 4 5 5 6 6 6 6 6 7 7 6 6 6 7 7 6 6 9 11 14 15 15 15 18 17 17 17 16 18 20 20 20 20 20 19 22 23 23 23 23 22 20 18 19 18
4 4 4 5 5 5 5 6 6 6 7 7 6 6 7 6 6 6 7 9 11 13 13 13 14 14 15 16 17 18 16 18 19 21 20 21 19 20 21 21 21 21 20 21 20 18 17
4 4 4 5 5 5 6 6 6 6 7 6 6 6 6 6 5 6 7 9 11 11 13 13 13 13 14 15 15 16 18 19 19 20 19 20 19 18 20 22 23 23 22 20 18 19 17
4 4 4 4 4 5 5 5 6 6 6 6 6 6 6 7 6 6 8 9 9 10 11 12 13 14 14 14 13 15 17 18 18 17 18 19 18 17 19 20 22 21 21 22 20 18 18
4 3 4 4 4 5 5 5 5 5 6 6 4 6 6 6 7 7 8 8 9 11 10 10 11 13 12 12 13 13 15 17 16 17 15 17 18 19 18 20 20 21 21 22 22 15 18
3 3 3 4 4 5 5 5 5 5 6 6 4 5 7 6 6 7 8 9 9 9 11 11 10 10 11 11 13 13 15 15 17 15 16 16 17 19 20 21 21 21 21 22 21 20 18
3 3 3 4 4 4 5 5 5 5 6 6 3 6 6 6 8 7 7 8 9 10 10 11 10 12 12 11 12 12 14 14 15 15 15 14 15 18 18 20 22 22 22 21 21 21 20
3 3 4 4 4 5 5 5 5 6 5 6 5 5 8 8 7 7 7 8 9 9 10 11 11 11 11 12 12 12 13 13 14 14 13 13 13 13 16 18 20 18 19 20 21 21 21
3 4 4 4 4 5 5 5 5 5 5 5 6 7 6 7 8 8 9 9 9 10 9 11 12 11 12 13 13 12 12 13 13 13 14 13 12 12 12 15 16 19 21 21 20 22 22
4 4 4 4 4 4 4 5 5 5 5 4 5 6 6 7 7 9 9 9 9 10 10 10 11 12 12 13 11 12 11 12 12 13 13 14 12 11 12 15 18 18 20 20 21 20 21
4 4 4 4 4 4 4 4 4 5 4 4 4 5 6 7 7 9 9 9 8 8 8 10 11 12 12 10 9 10 10 12 13 13 13 11 11 11 11 13 15 18 19 22 22 17 21
4 4 4 4 4 4 4 4 4 4 4 4 4 4 4 4 7 9 9 9 10 9 8 9 10 10 10 7 7 8 11 13 12 11 10 10 9 11 11 12 13 15 18 21 19 19 21
5 4 4 4 4 4 4 4 5 5 4 4 5 4 4 3 5 9 10 9 10 10 9 9 10 9 8 8 8 8 7 11 12 13 12 11 11 11 11 12 12 18 19 18 16 19 19
6 5 6 6 5 5 5 4 5 5 5 4 5 4 5 5 5 7 10 13 12 12 10 9 10 11 10 9 7 8 8 6 10 12 14 12 13 12 12 13 15 17 17 15 16 16 16
Height
839 840 838 836 834 834 835 832 831 830 830 829 830 829 827 824 821 818 816 813 811 809 807 805 804 801 796 794 775 765 764 766 766 767 767 771 774 776 782 774 772 775 770 762 758 751 757
836 837 834 835 834 832 830 830 829 828 826 825 827 826 826 823 819 817 813 810 808 806 804 804 802 801 799 797 762 761 762 762 763 765 766 768 769 769 774 773 774 764 766 761 755 751 751
833 832 833 831 831 828 827 827 826 825 821 822 824 823 823 820 818 814 810 806 805 802 801 802 801 801 796 778 759 759 761 760 761 763 763 764 764 771 769 773 760 762 770 762 754 748 751
829 829 829 828 828 825 823 823 824 822 820 820 819 819 819 818 816 812 807 803 799 797 797 798 799 799 785 758 757 753 755 755 757 759 760 760 762 766 769 764 766 770 770 781 757 750 748
826 826 825 824 824 823 821 821 821 820 819 818 818 816 816 815 813 809 804 797 792 791 792 794 797 797 778 756 753 744 747 752 753 754 756 757 761 766 765 775 788 779 790 780 768 749 749
822 822 821 821 820 819 818 819 818 817 816 815 815 814 813 811 811 807 801 792 783 784 787 792 794 798 766 751 745 743 742 745 750 751 755 759 763 771 777 786 798 788 782 773 776 757 753
819 818 817 816 815 814 814 815 814 813 812 812 812 811 812 811 809 806 801 793 787 786 785 778 775 769 752 746 744 739 740 743 749 752 764 758 773 773 775 772 767 772 775 777 762 752 753
814 812 811 811 810 809 809 809 809 808 808 809 809 809 810 809 807 804 802 801 798 802 788 769 764 760 750 750 753 738 739 746 751 760 759 766 764 755 760 764 768 771 772 769 756 739 751
808 807 805 805 804 803 803 803 804 804 805 805 805 805 808 807 805 802 800 798 796 795 791 754 747 743 736 743 747 740 740 739 745 757 756 762 750 743 755 759 765 763 767 763 760 744 742
801 800 799 799 798 797 797 798 797 798 800 800 801 802 804 806 805 798 796 794 794 794 791 752 734 721 720 727 733 723 727 734 741 748 751 757 741 749 753 755 756 767 747 747 748 755 772
794 793 792 791 790 790 791 791 792 793 794 795 797 799 801 803 799 798 794 792 790 792 797 725 718 705 709 720 713 711 715 728 737 735 743 746 743 746 751 745 742 751 739 742 741 751 758
786 785 784 783 782 783 784 784 785 787 788 790 793 795 798 800 798 795 795 792 790 791 779 725 704 712 718 718 710 703 713 719 722 734 733 737 728 735 735 731 734 732 736 740 747 759 779
777 776 775 774 774 775 776 777 778 780 782 785 787 791 794 795 794 795 794 792 790 783 724 716 707 704 709 718 716 710 716 727 736 746 744 738 733 727 727 738 730 735 749 777 784 783 782
768 766 766 765 766 766 767 769 771 773 776 778 782 785 789 789 792 795 796 792 779 735 730 709 707 707 714 713 716 713 719 730 725 727 736 744 751 729 719 727 734 737 744 778 777 792 776
759 757 757 757 757 757 758 760 763 766 768 772 777 781 784 783 790 795 796 779 746 735 725 723 717 721 718 709 711 714 719 721 718 719 737 739 736 711 711 713 717 731 747 730 757 761 779
749 748 747 747 747 748 749 752 755 758 761 766 771 775 775 777 786 793 792 758 745 734 731 729 734 720 725 724 726 729 719 705 711 710 715 721 736 713 708 709 707 713 718 749 756 769 776
738 737 737 737 738 739 741 743 746 750 754 760 764 768 766 773 783 787 771 748 742 741 741 742 738 738 734 731 726 724 725 712 704 703 707 714 724 723 711 711 719 720 729 729 737 749 771
726 726 726 726 727 728 731 734 737 741 747 752 755 757 760 768 779 769 754 747 747 743 743 744 740 738 742 739 735 729 720 715 708 705 713 706 717 728 716 701 696 703 712 723 747 747 751
714 713 713 713 714 716 719 723 727 732 737 743 746 752 756 758 759 750 747 750 752 750 746 744 739 735 732 741 744 728 721 708 711 714 712 706 717 732 723 712 698 708 705 706 719 731 740
700 699 699 700 702 704 707 711 715 721 727 735 744 745 746 746 735 741 747 746 747 744 749 749 743 736 738 739 738 733 726 714 708 710 712 708 710 706 712 707 704 705 702 698 706 744 734
685 685 685 686 688 691 694 699 703 709 716 725 730 724 720 723 732 739 739 733 739 742 741 740 740 739 744 739 734 731 723 721 710 711 709 719 715 699 693 691 693 697 697 697 701 706 723
669 669 669 671 674 677 681 684 690 696 705 710 716 712 716 717 719 735 732 720 729 732 736 733 734 730 733 736 737 734 726 723 716 715 718 720 720 700 698 692 686 693 691 693 693 695 699
652 652 654 656 659 663 666 670 677 685 695 692 698 702 702 704 715 719 695 720 723 734 727 727 726 729 732 730 727 725 722 719 717 718 721 728 733 729 709 700 692 707 686 690 688 687 691
636 637 639 641 645 650 655 661 668 675 682 690 685 693 700 694 698 684 702 715 717 719 725 718 721 727 721 719 718 721 720 717 714 714 713 721 731 735 731 716 717 672 671 677 682 677 673
622 624 626 629 634 639 645 651 658 664 672 677 678 683 685 685 687 695 695 702 713 715 717 719 718 717 716 719 726 722 725 718 715 710 712 711 724 740 731 714 689 679 671 674 678 682 669
610 612 615 618 623 628 634 640 647 654 662 670 673 678 681 684 673 681 691 696 704 710 717 712 714 712 717 724 729 724 730 715 710 710 713 719 723 729 738 724 703 676 667 657 660 690 662
595 597 599 603 608 614 621 628 636 643 652 661 664 671 680 685 673 677 678 682 693 703 709 708 710 712 713 729 739 733 716 702 713 718 727 729 730 727 726 720 705 677 666 657 685 681 661
578 580 582 586 592 598 606 614 623 632 642 652 657 665 676 685 676 669 669 674 684 690 699 699 708 705 714 721 723 723 726 704 705 701 711 718 721 722 726 725 707 661 661 673 677 662 657
564 566 568 572 576 582 590 599 610 619 629 644 654 659 669 679 677 672 666 665 668 671 683 690 692 691 696 705 713 713 717 720 706 704 694 705 692 708 703 701 670 657 664 666 670 670 667
Wind_Speed
12 14 14 13 14 15 16 16 17 15 14 15 17 18 20 18 18 18 21 24 24 23 22 22 20 19 12 2 11 14 12 8 10 9 8 4 3 2 4 4 5 5 7 7 9 6 8
15 15 15 15 14 14 13 16 17 18 18 17 18 18 19 20 20 21 22 25 26 25 23 19 17 16 3 6 10 7 16 15 10 11 7 7 6 5 6 6 2 4 6 9 6 6 4
17 17 18 18 17 17 16 17 16 17 17 18 18 18 20 20 21 22 25 28 29 28 26 20 14 11 9 18 10 3 3 10 9 14 5 14 17 3 4 9 4 5 6 9 7 2 2
18 18 19 19 22 24 19 19 19 18 17 17 19 19 19 21 22 23 25 28 32 31 26 16 9 6 9 16 20 27 19 24 24 20 22 19 15 5 5 6 8 5 2 3 4 2 6
19 19 19 20 21 21 21 23 23 20 19 16 15 16 19 22 23 23 26 31 35 27 20 6 2 4 12 10 10 17 21 11 10 16 20 19 8 6 4 2 5 3 5 5 9 7 3
20 21 21 21 21 21 22 23 22 22 21 18 17 17 20 19 20 22 25 34 28 14 3 3 5 1 10 5 4 11 11 21 7 4 2 5 2 5 1 4 8 6 4 3 6 6 3
22 22 22 22 22 23 22 22 22 23 22 19 17 16 17 17 16 18 23 15 4 1 1 8 9 6 11 5 15 6 9 10 5 4 9 4 4 13 10 9 7 6 7 8 11 10 6
24 24 24 25 25 25 24 24 24 23 21 22 23 18 16 17 16 16 16 4 4 4 10 16 21 23 35 18 9 14 4 7 7 10 6 3 18 13 8 8 9 9 13 14 10 4 7
26 25 26 26 26 26 25 25 25 24 23 21 18 19 16 15 15 15 13 14 14 20 5 9 19 14 16 19 15 21 4 6 7 7 10 12 7 16 11 12 12 14 13 13 9 5 4
26 28 29 28 26 27 27 27 25 24 23 21 19 16 16 12 11 9 6 4 23 13 4 7 8 9 13 10 9 29 17 7 7 16 11 7 18 12 10 15 10 11 11 9 5 2 3
29 30 31 31 29 29 28 25 24 22 21 21 20 16 12 10 9 3 8 20 26 2 6 6 5 6 8 16 8 9 35 7 12 12 9 9 8 15 17 17 11 13 16 8 6 3 2
32 34 33 31 30 28 29 25 24 22 21 20 19 17 13 13 18 19 21 23 9 2 10 6 5 7 8 10 3 4 7 3 4 11 11 13 9 7 12 13 13 16 5 3 3 2 3
34 34 33 31 30 29 27 26 25 23 21 20 19 18 16 18 4 2 10 9 3 7 3 5 5 6 6 8 7 1 10 16 8 9 15 14 18 11 6 9 8 7 4 2 3 2 7
35 34 35 34 31 29 28 27 25 23 22 21 20 19 19 24 23 17 9 3 13 5 10 4 4 8 2 4 5 3 3 6 15 4 5 12 8 18 9 16 8 7 9 5 5 4 5
35 36 36 34 32 30 28 28 26 24 22 20 19 20 18 27 21 9 3 8 9 5 4 9 12 8 3 4 5 9 8 7 10 16 7 8 12 5 10 10 10 5 4 8 5 2 2
36 38 37 35 33 31 28 27 26 24 23 21 21 14 19 27 18 10 5 20 8 5 8 7 2 2 3 7 4 6 4 6 10 12 14 6 4 11 18 5 9 11 6 3 1 3 4
40 38 38 36 34 32 30 28 27 26 24 22 18 4 10 26 20 4 13 16 11 15 8 5 4 4 6 6 5 3 4 10 5 16 15 16 4 5 7 12 8 3 3 1 5 5 5
40 40 40 37 37 35 33 32 29 28 26 24 7 5 17 30 8 7 19 12 11 14 4 13 5 6 5 4 5 4 3 3 12 5 5 12 11 13 17 6 11 10 11 9 6 5 4
42 42 41 39 38 36 34 34 33 32 31 20 4 3 18 30 11 17 15 22 18 6 5 4 6 12 4 3 3 6 4 7 6 5 6 2 7 4 7 9 12 6 7 12 5 4 9
43 42 40 39 38 36 36 35 35 36 34 30 4 5 5 11 5 12 19 20 20 12 22 21 12 10 9 10 7 6 7 7 7 4 9 1 7 15 18 6 5 4 8 18 15 4 5
43 42 40 40 39 38 38 38 38 38 38 37 5 5 6 11 17 15 16 8 23 18 13 9 9 22 8 6 6 8 4 5 5 7 7 5 13 16 14 13 10 7 6 14 14 10 8
45 43 41 40 39 39 39 41 40 40 40 29 6 5 4 2 16 23 22 22 21 18 12 14 16 11 14 16 10 6 7 5 4 3 4 9 6 7 10 9 16 16 18 13 7 6 7
44 42 40 39 39 39 38 46 38 36 34 12 11 9 5 11 12 16 30 22 17 17 13 17 12 12 15 12 9 8 7 4 2 4 2 3 6 9 14 11 15 11 17 10 6 5 7
41 41 41 40 37 34 32 32 37 39 40 37 7 9 5 7 17 23 11 20 20 19 20 11 14 14 9 10 3 1 3 5 5 5 5 6 4 2 4 2 11 20 8 7 12 12 11
33 31 30 30 33 35 36 37 39 41 41 32 11 7 6 11 15 17 18 15 17 17 21 16 12 5 6 4 3 5 3 5 5 7 10 6 5 1 4 7 6 13 7 15 16 10 8
35 36 36 36 37 38 40 41 42 43 41 37 22 19 1 8 18 19 17 15 11 14 14 17 17 11 4 1 3 9 5 2 3 2 6 7 6 4 0 7 13 2 7 3 2 6 5
39 39 40 41 41 41 42 43 44 44 43 41 14 28 4 2 7 13 15 18 10 8 4 4 7 8 7 3 2 4 8 6 5 5 4 2 3 7 2 7 7 8 5 2 9 5 2
38 39 41 42 45 46 45 46 47 46 45 43 30 35 22 1 5 6 12 9 10 12 8 4 3 4 2 6 4 4 4 6 4 5 6 6 6 3 3 4 7 3 4 3 4 2 6
20 26 28 31 34 40 46 48 48 50 53 48 16 32 33 4 4 13 10 22 29 19 11 5 5 5 6 3 3 2 1 1 6 8 5 4 5 5 9 7 8 2 7 5 1 2 5
Wind_Direction
301 301 300 304 302 299 302 298 293 300 300 299 302 304 308 312 317 319 320 320 321 320 321 323 324 332 340 310 252 237 278 252 213 198 191 187 218 210 239 256 339 201 267 301 291 251 123
306 298 297 298 302 302 304 300 299 299 300 306 303 298 300 307 315 315 315 317 316 318 319 323 325 330 281 264 266 275 261 236 212 200 199 188 215 203 272 258 238 283 302 294 262 251 179
302 303 304 311 295 294 300 305 314 309 310 305 297 305 299 304 308 315 318 317 312 313 314 316 314 316 259 246 255 220 155 219 227 230 196 224 231 126 326 323 292 297 337 321 294 302 165
300 299 299 298 302 303 306 306 298 305 318 305 305 295 304 308 303 308 313 312 310 305 309 311 296 287 256 261 293 277 262 258 257 250 238 244 241 221 184 246 333 332 342 338 303 286 227
297 296 294 294 295 293 296 298 295 295 296 302 307 311 299 295 308 304 309 310 305 303 298 295 238 212 263 291 262 277 242 222 241 233 228 246 234 217 274 68 346 311 253 238 302 226 190
294 293 293 291 289 289 291 290 290 294 294 290 294 307 316 303 302 308 314 311 307 287 255 187 220 316 262 244 264 295 273 210 214 223 243 209 190 191 110 112 234 216 228 308 294 288 155
290 290 288 288 287 286 285 282 284 284 287 291 289 293 303 314 307 312 321 337 356 28 171 204 187 249 288 270 317 277 241 165 189 191 194 194 195 221 203 205 234 299 301 275 279 254 153
286 286 286 286 286 285 280 278 279 280 282 280 281 293 293 309 301 304 305 278 288 39 295 257 250 240 253 271 307 289 333 164 162 210 143 206 233 219 198 225 239 248 265 276 281 246 175
286 285 285 285 287 285 282 278 276 275 275 278 283 278 285 306 303 293 279 262 303 328 248 266 233 227 232 208 225 255 206 190 189 180 204 207 223 197 203 232 237 250 249 263 245 292 266
286 286 285 284 284 283 280 277 276 275 274 271 274 281 267 297 293 278 263 322 340 313 283 260 225 237 213 192 226 222 201 177 206 204 213 224 238 240 215 237 215 256 245 241 266 129 243
286 284 285 287 287 288 284 278 274 270 266 264 265 264 264 240 276 270 302 320 332 164 295 241 220 166 166 171 155 222 204 158 200 196 176 215 187 214 226 229 230 246 252 247 241 223 134
284 286 287 289 286 282 278 276 271 266 261 257 254 250 248 238 253 260 295 313 321 139 245 273 182 155 139 201 254 76 145 204 159 217 231 216 254 188 218 231 227 246 220 43 34 59 297
287 287 287 286 284 278 272 270 267 262 256 251 245 242 230 222 219 201 325 332 187 219 229 238 182 170 168 167 240 143 173 186 175 184 220 229 246 252 231 244 264 208 103 305 326 332 247
288 286 288 285 283 276 269 264 262 258 252 245 238 231 227 231 236 268 318 241 220 244 238 10 35 28 212 127 244 194 152 174 216 224 179 209 240 227 222 207 205 193 169 172 213 215 257
284 284 284 281 280 275 268 260 258 255 248 239 230 230 221 231 227 232 257 223 221 167 247 271 314 329 271 199 217 183 207 207 206 204 192 192 232 270 201 224 186 203 165 190 149 128 53
280 280 279 279 275 275 268 259 255 252 244 229 215 206 217 221 206 180 238 232 219 244 317 9 307 286 34 15 56 29 205 245 205 199 204 245 300 229 253 204 224 190 172 109 8 154 249
278 277 279 275 270 270 267 260 252 248 241 226 196 205 209 204 178 195 222 229 237 259 307 345 313 320 358 6 20 332 267 299 240 218 203 211 204 279 219 222 203 154 169 119 145 153 182
275 277 276 269 268 265 262 258 252 245 236 220 179 208 177 164 183 210 225 208 256 275 254 242 293 269 199 343 279 265 267 267 357 331 238 213 211 231 242 268 213 207 197 178 186 206 192
273 276 272 264 264 258 254 252 247 241 229 201 172 152 174 165 203 217 222 220 247 260 250 237 249 234 131 118 341 261 266 301 65 345 348 340 230 237 245 256 243 200 205 211 162 137 202
271 272 266 262 260 254 253 248 244 239 228 205 143 169 176 202 237 206 219 224 222 219 243 254 279 294 289 266 223 268 313 304 338 335 310 254 238 232 224 231 190 206 212 213 204 166 190
271 268 263 261 259 254 248 247 240 234 224 202 181 213 190 201 209 218 204 209 218 224 234 218 250 243 250 282 240 242 278 311 308 15 1 43 263 240 241 211 237 249 228 210 206 192 182
268 264 261 259 256 252 250 240 237 232 220 206 166 186 163 77 184 204 222 214 223 207 215 219 229 243 226 239 242 314 329 270 221 17 36 11 302 319 267 224 219 226 256 237 222 224 229
267 262 259 257 250 251 240 231 219 216 209 212 181 211 174 193 189 192 215 216 215 218 251 230 248 250 248 253 248 247 262 251 203 152 96 55 350 350 256 276 239 242 212 241 215 185 174
268 264 259 250 245 231 228 221 219 216 212 213 181 153 184 205 200 212 189 205 211 218 218 230 229 239 246 246 231 205 241 231 218 218 167 175 273 309 279 238 231 251 182 218 231 239 233
262 258 250 239 229 228 226 222 218 218 216 221 176 192 184 213 211 214 204 195 200 217 231 246 248 238 252 261 217 265 305 328 233 228 193 169 121 323 273 228 253 229 232 207 218 253 222
256 252 246 240 236 229 226 224 218 219 213 214 214 200 155 214 218 202 202 188 190 209 225 239 246 255 297 148 192 218 217 172 267 88 79 108 95 134 102 279 225 204 217 170 110 257 250
259 254 248 242 237 233 227 225 222 219 213 204 210 191 115 274 226 185 196 198 182 162 191 186 210 241 174 180 214 217 233 181 218 175 178 134 92 213 205 265 278 253 290 219 204 225 295
262 256 250 243 238 231 227 225 220 219 212 200 206 187 188 203 286 241 184 162 179 197 194 194 114 246 102 178 173 217 194 197 167 184 177 168 164 148 128 288 262 220 17 124 291 285 55
251 248 243 237 233 229 225 219 219 220 206 198 193 185 184 189 293 296 245 203 189 192 190 174 180 168 206 154 195 132 231 60 143 231 200 234 166 194 172 215 244 174 145 154 319 330 329